Regional Weather Roundup
Issued by NWS

Home | Current Version | Previous Version | Text Only | Print | Product List | Glossary On
Versions: 1 2 3 4 5 6 7 8 9 10 11 12 13 14 15 16 17 18 19 20 21 22 23 24 25 26 27
000
ASCA42 TJSJ 301410
RWRPR
PUERTO RICO/U.S. VIRGIN ISLANDS HOURLY WEATHER ROUNDUP
NATIONAL WEATHER SERVICE SAN JUAN PR
1000 AM AST THU MAR 30 2017

PRZ001>002-007>008-010-301500-
PUERTO RICO

CITY           SKY/WX    TMP DP  RH WIND       PRES   REMARKS
SAN JUAN LMM   PTSUNNY   81  70  69 N9        30.02R
AGUADILLA      PTSUNNY   79  66  65 NE15      30.03R
CEIBA          PTSUNNY   84  70  61 NE12G18   30.03S
$$

VIZ001>002-301500-
U.S. VIRGIN ISLANDS

CITY           SKY/WX    TMP DP  RH WIND       PRES   REMARKS
CHARLOTTE AMA  PTSUNNY   79  70  73 MISG      30.01R
CHRISTIANSTED  MOSUNNY   82  70  65 N8G20     30.01R
$$

HOURLY WEATHER ROUNDUP FOR THE NEWS MEDIA

CITY           SKY/WX    TMP DP  RH WIND       PRES   REMARKS
ORLANDO        SUNNY     76  63  64 S14       30.02R
NEW YORK       CLOUDY    43  22  43 NE15      30.28R
NEWARK         CLOUDY    44  23  43 N7        30.27R
CHICAGO        LGT RAIN  42  39  89 E15G24    29.77F
HARTFORD       SUNNY     42  20  41 VRB6G16   30.21F
BOSTON         MOSUNNY   40  20  44 N13G20    30.23S WCI  32
DALLAS         MOSUNNY   57  45  64 W12       29.87R
PHILADELPHIA   CLOUDY    46  25  43 E8        30.28F
LOS ANGELES    PTCLDY    57  55  93 E3        29.95R
WASHINGTON DC  CLOUDY    47  28  47 SE8       30.24F



USA.gov is the U.S. government's official web portal to all federal, state and local government web resources and services.